COSMOS 1275 DEB, 42154

Orbit data source: Space-Track

COSMOS 1275 DEB, 42154 is space debris in LEO originally from a launch on Thu, 04 Jun 1981 UTC launched from the Plesetsk Missile And Space Complex (PKMTR). Debris objects in space refer to the collection of defunct objects orbiting the Earth. Examples of debris include non-operational satellites, rocket bodies, and fragments generated from explosions, collisions, or faulty payload assembly.

Loading next visibility...
Identifier
42154, 1981-053RS
Orbit
LEO
Country
Flag of CISCIS
Related business
Manufacturer
Unknown
Mission
Spacecraft
Bus & Motor
Unknown
Mass
Unknown
Launch date (UTC)
1981-06-04 (45 years ago)
Launch vehicle
Unknown
Launch site
Plesetsk Missile And Space Complex (PKMTR)
Object type
Payload
Rocket body
Debris
Shape & HBR
Unknown shape, 0.1 m
Radar Cross Section
Small (<0.1 m²)

Expand to show TLE details & history
Last TLE update: 4 days ago

TLE from 4 days ago
0 COSMOS 1275 DEB
1 42154U 81053RS  26068.17766328  .00000456  00000-0  48913-3 0  9998
2 42154  82.8111  28.3601 0125625 229.9063 146.3269 13.68459897557908
Epoch: 2026-03-09T04:15Z
TLE epoch observation values (Epoch: 2026-03-09T04:15:50.107Z)
Latitude
16.86849°
Longitude
159.70763°
Altitude
1,084.93 km
Speed
7.273 km/s
True Right ascension
02h 02m 09s
True Declination
16° 46' 39"
Sunlit
Object was in daylight at epoch
Visualization orbit readout
Latitude
Unknown
Longitude
Unknown
Altitude
Unknown
Speed
Unknown
Apparent Right ascension
Unknown
Apparent Declination
Unknown
Sunlit
N/A
Visualization observer readout
Local Sidereal Time
12:38:53
Azimuth
Unknown
Elevation
Unknown
Doppler factor
Unknown
Orbital elements
Apogee altitude
1,094.984 km
Perigee altitude
909.551 km
Semi-major axis
7,380.405 km
Eccentricity
0.01256
Inclination
82.8111°
RAAN
28.3601°
Arg. of periapsis
229.9063°
True anomaly
147.11474°
Mean anomaly
146.3269°
Eccentric anomaly
146.72185°
Mean motion
3.42313 °/min
Orbital period
105.17 mins
BSTAR
0.00048913
Loading maneuver chart data...
Computing Atmospheric mass density...
Loading historical data...
Loading historical data...
Loading historical data...
Loading historical data...
Loading historical data...
Loading historical data...
Loading historical data...

Documentation

Showing up to 5 results
|